Flag for Fiji Weather past 2 weeks in Lautoka, Fiji

Now
68 °F

Passing clouds.


Feels Like: 68 °F
Forecast: 73 / 81 °F
Wind: 8 mph from Southeast

Location: Nandi

Current Time: Jul 30, 2014 at 12:45:43 AM

Latest Report: Jul 30, 2014 at 12:00 AM


Visibility: N/A

Pressure: 30.04 "Hg

Humidity: 83%

Dew point: 63 °F

Location of LautokaLocation

Historic Weather in Lautoka — Graph

°F

Lautoka temperature yesterday

Maximum temperature yesterday: 79 °F (at 10:00 AM)
Minimum temperature yesterday: 61 °F (at 4:00 AM)
Average temperature yesterday: 69 °F

Past Weeks' High & Low Weather Summary

 TemperatureHumidityPressure
High82 °F (Jul 19, 12:00 PM)100% (Jul 15, 1:00 AM)30.09 "Hg (Jul 15, 1:00 AM)
Low55 °F (Jul 27, 4:00 AM)42% (Jul 25, 2:00 PM)29.77 "Hg (Jul 22, 4:00 PM)
Average70 °F76%29.93 "Hg
* Reported Midnight between Jul 14 and Jul 15 — Midnight between Jul 29 and Jul 30, Lautoka, Weather by CustomWeather, © 2014

Note: Actual official high and low records may vary slightly from our data, if they occured in-between our weather recording intervals... More about our weather records

Advertising

Lautoka weather history for previous 24 hours

 ConditionsComfort  
Time TempWeatherWind HumidityBarometerVisibility
12:00 AM
Jul 30
68 °FPassing clouds.8 mph83%30.04 "HgN/A
11:00 PM
Jul 29
68 °FPassing clouds.5 mph83%30.04 "HgN/A
10:00 PM68 °FPassing clouds.9 mph83%30.07 "HgN/A
9:00 PM68 °FPassing clouds.3 mph88%30.07 "HgN/A
8:00 PM70 °FPartly cloudy.5 mph83%30.04 "HgN/A
7:00 PM70 °FPassing clouds.8 mph88%30.04 "HgN/A
6:00 PM70 °FPassing clouds.3 mph94%30.01 "HgN/A
5:00 PM70 °FBroken clouds.7 mph88%30.01 "HgN/A
4:00 PM73 °FSprinkles. Broken clouds.12 mph74%30.01 "HgN/A
3:00 PM77 °FScattered clouds.12 mph61%29.98 "HgN/A
2:00 PM77 °FSprinkles. Scattered clouds.5 mph69%29.98 "HgN/A
1:00 PM77 °FSprinkles. Scattered clouds.7 mph61%30.01 "HgN/A
12:00 PM77 °FSprinkles. Scattered clouds.12 mph57%30.04 "HgN/A
11:00 AM77 °FScattered clouds.8 mph57%30.04 "HgN/A
10:00 AM79 °FPassing clouds.2 mph58%30.07 "HgN/A
9:00 AM73 °FPassing clouds.6 mph61%30.07 "HgN/A
8:00 AM66 °FPassing clouds.3 mph83%30.04 "HgN/A
7:00 AM61 °FPassing clouds.3 mph94%30.01 "HgN/A
6:00 AM61 °FPassing clouds.6 mph94%30.01 "HgN/A
5:00 AM63 °FPassing clouds.5 mph88%29.98 "HgN/A
4:00 AM61 °FPassing clouds.5 mph94%29.98 "HgN/A
3:00 AM63 °FPassing clouds.5 mph88%29.98 "HgN/A
2:00 AM63 °FPassing clouds.3 mph88%29.98 "HgN/A
1:00 AM64 °FPassing clouds.6 mph83%30.01 "HgN/A
12:00 AM64 °FPassing clouds.6 mph83%30.01 "HgN/A
Weather by CustomWeather, © 2014

See weather overviewHow to use our weather pages